Regional Weather Roundup
Issued by NWS Grand Forks, ND

Home | Current Version | Previous Version | Graphics & Text | Print | Product List | Glossary On
Versions: 1 2 3 4 5 6 7 8 9 10 11 12 13 14 15 16 17 18 19 20 21 22 23 24 25 26 27 28 29 30 31 32 33 34 35 36 37 38 39 40 41 42 43 44 45 46 47 48 49 50
000
ASUS43 KFGF 282031
RWRFGF
PRAIRIE TO PINES  WEATHER ROUNDUP
NATIONAL WEATHER SERVICE EASTERN NORTH DAKOTA/GRAND FORKS ND
300 PM CDT SAT MAY 28 2016

 **SATELLITE DATA USED TO AUGMENT SKY COVER AT AUTOMATED STATIONS**
 *****  WEATHER ACROSS EASTERN NORTH DAKOTA  *****

CITY           SKY/WX    TMP DP  RH WIND       PRES   REMARKS
GRAND FORKS    CLOUDY    72  54  53 NE8       29.81F
GRAND FRKS AFB CLOUDY    72  54  53 NE8       29.82F
GRAND FRKS NWS   N/A     66 N/A N/A E15         N/A
DEVILS LAKE    PTSUNNY   66  57  72 NW8       29.86F
FARGO          CLOUDY    69  56  62 N13       29.79S
WAHPETON ARPT  CLOUDY    68  52  56 N8        29.80S
$$

 ***** WEATHER ACROSS CENTRAL AND WESTERN NORTH DAKOTA  *****

CITY           SKY/WX    TMP DP  RH WIND       PRES   REMARKS
BISMARCK       RAIN      64  58  80 NE5       29.87S
MINOT          CLOUDY    67  52  58 CALM      29.88S
JAMESTOWN      MOSUNNY   68  56  65 N10       29.84S
MINOT AFB      CLOUDY    64  53  68 NE5       29.87F
GARRISON         N/A     67  54  63 E9        29.87F
WILLISTON      MOSUNNY   68  52  56 NE6       29.86F
DICKINSON      LGT RAIN  56  53  90 S5        29.88S
HETTINGER      RAIN      57  53  86 W22       29.92R FOG
$$

 *****  OTHER AIRPORT OBSERVATIONS IN OUR AREA  *****

CITY           SKY/WX    TMP DP  RH WIND       PRES   REMARKS
WALHALLA       FAIR      66  66 100 NE9       29.86S
GRAFTON AIRPOR MOCLDY    70  59  68 N10G18    29.84S
VALLEY CITY AR CLOUDY    64  64 100 NW9       29.85S
CANDO          CLOUDY    64  57  77 N6        29.89F
CAVALIER APRT  LGT RAIN  64  63  94 N10       29.85S
GWINNER        FAIR      70  57  64 N9        29.81F
ROLLA          CLOUDY    57  57 100 N9        29.91F
 ***** THE ABOVE OBSERVATIONS ARE NON NWS ARE NOT QUALITY
       CONTROLLED AND MAY MIS-REPORT RAIN FOR SNOW...
$$

  *****  WEATHER ACROSS NORTHERN MINNESOTA  *****

CITY           SKY/WX    TMP DP  RH WIND       PRES   REMARKS
FLAG ISLAND    PTSUNNY   61  55  82 NE14      29.85S
WARROAD        DRIZZLE   61  57  88 NE8       29.85S
ROSEAU         LGT RAIN  64  59  82 E13       29.83F
HALLOCK        CLOUDY    72  55  56 E6        29.82F
THF RVR FALLS  CLOUDY    63  55  77 N10       29.84S
BAUDETTE       LGT RAIN  61  58  90 NE10      29.81F FOG
WASKISH        CLOUDY    61  57  88 NE7       29.81S FOG
CROOKSTON      DRIZZLE   64  57  77 NE9       29.84R
STEPHEN NDAWN    N/A     70  59  68 NE8         N/A
GREENBUSH NDAW   N/A     66  61  82 NE8         N/A
$$
  *****  WEATHER ACROSS CENTRAL AND WEST MINNESOTA  *****

CITY           SKY/WX    TMP DP  RH WIND       PRES   REMARKS
FOSSTON        DRIZZLE   59  57  94 N7        29.82R
BEMIDJI        CLOUDY    60  56  85 N7        29.80R
PARK RAPIDS    CLOUDY    62  56  80 CALM      29.80R HAZE
ELBOW LAKE     RAIN      64  56  77 CALM      29.81S
WADENA         CLOUDY    61  54  77 CALM      29.80S
DETROIT LAKES  CLOUDY    61  55  82 N3        29.81S
MOORHEAD       CLOUDY    64  57  77 NE10      29.81R
FERGUS FALLS   CLOUDY    64  55  72 N5        29.77S
MORRIS MN      DRIZZLE   64  59  82 CALM      29.79S
STAPLES        CLOUDY    61  55  82 CALM      29.81S
$$
  *****  WEATHER ELSEWHERE ACROSS MINNESOTA  *****

CITY           SKY/WX    TMP DP  RH WIND       PRES   REMARKS
DULUTH         CLOUDY    63  56  78 CALM      29.78R
INTRNTL FALLS  CLOUDY    60  57  89 E7        29.80F FOG
ELY            CLOUDY    61  59  94 CALM      29.79S FOG
CLOQUET        CLOUDY    61  55  82 CALM      29.79R
WHEATON        CLOUDY    70  57  64 N9        29.81S
BRAINERD       LGT RAIN  60  57  89 SW3       29.81R
HIBBING        LGT RAIN  59  57  93 SE5       29.78F
ALEXANDRIA     LGT RAIN  62  56  80 CALM      29.82R
SAINT CLOUD    CLOUDY    62  59  90 NW6       29.78F
MINNEAPOLIS    HVY RAIN  65  60  84 W8        29.77R
$$

  *****  WEATHER ACROSS SOUTH DAKOTA  *****

CITY           SKY/WX    TMP DP  RH WIND       PRES   REMARKS
SIOUX FALLS    CLOUDY    66  58  75 NE12      29.77R THUNDER
BROOKINGS      CLOUDY    63  57  82 N12       29.79S
WATERTOWN      CLOUDY    64  56  75 NE8       29.81S
HURON          HVY RAIN  60  58  92 NW13      29.82S FOG
SISSETON         N/A     70  53  54 NE7       29.79S
ABERDEEN       CLOUDY    67  59  75 VRB6      29.83S
MITCHELL       LGT RAIN  64  60  87 NW13      29.82R
PIERRE         CLOUDY    71  53  52 VRB6      29.84S
MOBRIDGE       CLOUDY    74  50  42 NE6       29.83S
RAPID CITY     LGT RAIN  61  53  75 SW13      29.94F
$$

  *****  SOME WEATHER IN NEARBY STATES *****

CITY           SKY/WX    TMP DP  RH WIND       PRES   REMARKS
GLASGOW MT     MOSUNNY   64  47  53 NW12      29.91S
GREAT FALLS MT CLOUDY    60  26  27 W20G26    29.98S
CHEYENNE WY    PTSUNNY   69  30  23 W16G24    30.02F
SCOTTSBLUFF NE MOSUNNY   73  40  30 VRB3      29.93F
OMAHA NE       CLOUDY    71  59  65 SW15G22   29.80R
DES MOINES IA  LGT RAIN  68  62  81 SW10      29.79S
DAVENPORT IA   CLOUDY    81  64  56 S22       29.81F
CHICAGO IL     PTSUNNY   78  65  63 S20G25    29.90F
EAU CLAIRE WI  PTSUNNY   71  65  81 SW7       29.75F
LA CROSSE WI   CLOUDY    79  63  57 S13       29.75F
$$

  *****  SOME NATIONAL WEATHER *****

CITY           SKY/WX    TMP DP  RH WIND       PRES   REMARKS
LA GUARDIA NY  MOSUNNY   88  63  42 S17       30.07F
RALEIGH NC     MOSUNNY   86  58  38 VRB7      30.14F
ATLANTA GA     MOSUNNY   85  50  29 VRB3      30.10F
NEW ORLEANS LA TSTM      75  69  81 E10       30.03R
OKLAHOMA CITY  MOSUNNY   82  59  45 S7        29.95S
ALBUQUERQUE NM MOSUNNY   76  23  14 SW8G21    30.07F
SALT LAKE CITY MOSUNNY   72  44  36 N14       30.02F
LOS ANGELES CA PTSUNNY   66  55  68 W14       29.90F
BOISE ID       SUNNY     65  28  24 W12G17    30.07F
SEATTLE WA     CLOUDY    61  48  62 S14       30.06F
$$

*** WEATHER ACROSS MANITOBA...SASKATCHEWAN AND ONTARIO ***
                ***ONTARIO***

CITY           SKY/WX    TMP DP  RH WIND       PRES   REMARKS
GERALDTON      DRIZZLE   57  57 100 NE14G20   29.89F
THUNDER BAY    CLOUDY    61  59  94 E14       29.79F FOG
SIOUX LOOKOUT  DRIZZLE   55  52  88 NE7G18    29.91S
TORONTO        PTSUNNY   86  64  48 S10       30.03F
BIG TROUT LK   CLOUDY    52  41  66 E9G20     30.14F
PICKLE LAKE    CLOUDY    50  46  87 NE9       30.02S
DRYDEN         CLOUDY    57  54  88 NE14G22   29.88S
KENORA         CLOUDY    59  54  82 NE9       29.89F
$$
                *** MANITOBA***

CITY           SKY/WX    TMP DP  RH WIND       PRES   REMARKS
BRANDON        CLOUDY    55  52  88 E16       29.93F
DAUPHIN        CLOUDY    52  48  87 NE12      29.98S
ISLAND LAKE    NOT AVBL
PILOT MOUND      N/A     61  57  88 N10         N/A
THE PAS        CLOUDY    54  41  62 NE9       30.06F
THOMPSON       CLOUDY    46  36  66 E6        30.16F
WINNIPEG       PTSUNNY   66  59  77 NE17      29.88F
LYNN LAKE      CLOUDY    45  36  70 E10       30.13F
CHURCHILL      MOSUNNY   46  36  66 SE10      30.30F
GILLAM         PTSUNNY   46  36  66 VRB7      30.22F
$$
                ***SASKATCHEWAN***

CITY           SKY/WX    TMP DP  RH WIND       PRES   REMARKS
ESTEVAN        CLOUDY    59  54  82 E8        29.91F
KINDERSLEY     CLOUDY    50  48  93 NE6       29.87S
LLOYDMINSTER   CLOUDY    55  50  82 VRB3      29.86F
PRINCE ALBERT  CLOUDY    59  48  67 E8        29.95F
REGINA         CLOUDY    59  48  67 SE13      29.90F
YORKTON        CLOUDY    55  46  71 E8        29.95F
N. BATTLEFORD  PTSUNNY   61  52  72 E16G23    29.87F
LA RONGE       CLOUDY    54  43  66 SE12      30.00F
SASKATOON      MOSUNNY   64  46  52 SE15G21   29.88F
SWIFT CURRENT  MOSUNNY   54  46  76 VRB3      29.88S
$$
NOTE: THESE ARE AUTOMATED STATIONS WITH LIMITED QUALITY CONTROL
      "FAIR" INDICATES FEW OR NO CLOUDS BELOW 12,000 FEET WITH NO
      SIGNIFICANT WEATHER AND/OR OBSTRUCTIONS TO VISIBILITY.
      SKY/WX - SKY CONDITION AND SIGNIFICANT WEATHER.
      TMP - AIR TEMPERATURE.    DP   - DEWPOINT TEMPERATURE.
      RH  - RELATIVE HUMIDITY.  PRES - PRESSURE.
      HX  - HEAT INDEX.         WCI  - WIND CHILL INDEX.
$




USA.gov is the U.S. government's official web portal to all federal, state and local government web resources and services.